Theta_e
313 316 317 322 325 326 328 327 327 323 317 314 314 313 313 312 311 310 308 307 306 305 305 304 303 302 301 300 299 298 298 298 300 300 298 297 301 300 300 301 300 300 299
312 313 313 317 321 323 324 319 317 316 315 315 315 316 314 311 309 306 305 304 303 303 302 301 300 299 299 298 297 296 296 298 300 301 301 299 300 301 298 300 298 297 296
313 311 310 311 313 313 314 313 313 312 312 311 311 311 310 310 308 305 303 302 302 301 300 299 300 300 298 298 297 297 296 298 298 299 300 298 298 297 298 297 297 295 295
310 309 309 310 310 310 310 311 311 311 311 310 310 310 310 309 306 304 301 302 302 301 302 302 301 300 298 298 297 297 296 297 296 297 296 295 296 296 296 296 295 294 294
310 309 310 310 310 310 311 310 310 310 310 310 309 309 308 305 304 302 303 303 303 302 301 301 301 299 298 297 296 296 296 294 293 293 293 294 293 295 294 293 292 291 291
310 310 310 310 310 310 310 310 311 310 309 308 307 307 306 304 303 303 303 303 302 302 301 300 299 298 296 295 294 292 291 290 289 289 290 291 291 291 292 290 290 290 290
310 310 308 308 308 309 309 309 308 305 304 304 303 303 303 303 302 302 302 302 301 301 300 299 297 295 293 293 292 290 290 289 288 288 287 288 288 289 289 290 289 289 288
308 307 306 306 307 306 306 305 303 302 303 303 302 302 302 301 301 301 301 301 300 300 299 298 296 294 296 292 291 289 289 288 288 288 288 288 288 288 286 286 287 286 286
305 304 305 305 305 305 304 304 304 301 299 298 297 297 298 296 293 293 293 293 296 299 298 297 295 295 293 292 291 290 289 288 288 288 288 288 288 287 285 285 284 285 285
305 303 302 302 302 303 304 303 298 296 296 295 295 294 293 292 290 290 290 292 296 297 297 296 294 292 292 291 290 289 289 288 288 288 288 287 286 285 285 284 283 282 282
303 301 301 300 300 300 299 298 297 296 295 294 293 293 292 291 291 290 290 293 297 296 295 294 294 293 291 290 289 288 288 288 288 288 286 285 285 284 283 282 281 280 281
302 301 301 298 296 296 296 296 295 295 294 293 293 292 292 292 291 291 291 293 295 295 295 293 292 293 291 289 288 288 288 288 287 286 285 285 284 283 282 281 280 280 280
301 300 300 297 295 295 296 295 295 294 294 293 293 292 292 292 291 291 291 292 292 292 291 293 293 289 289 288 288 288 288 287 285 285 285 283 283 282 281 280 280 280 281
302 300 298 296 295 296 296 295 294 294 293 293 292 292 292 292 291 291 291 292 292 292 292 291 291 289 288 288 288 287 286 285 285 284 283 283 282 281 280 281 280 280 280
301 300 297 295 295 296 295 294 294 293 293 292 292 292 292 292 291 291 291 292 292 292 293 292 289 288 287 287 287 286 285 284 284 283 283 282 281 281 281 280 280 279 280
302 301 298 296 295 295 294 294 294 293 292 292 292 292 292 291 291 291 291 291 293 290 289 288 289 287 287 286 286 285 284 284 283 281 280 279 279 279 279 278 279 279 280
302 300 298 297 295 295 295 294 293 292 292 292 292 292 292 291 291 290 291 292 292 291 291 290 287 287 286 285 283 282 281 281 279 278 277 277 277 277 277 277 278 279 280
300 299 299 297 295 294 294 293 292 292 291 292 292 292 291 291 290 290 291 291 292 291 291 289 286 285 284 282 281 280 279 278 277 276 276 276 276 277 278 279 279 279 279
299 300 299 296 293 293 293 292 292 292 292 292 292 291 291 291 289 290 290 290 290 290 288 286 285 283 281 280 279 279 278 277 276 276 276 276 276 277 279 278 279 279 279
299 296 294 293 292 292 292 292 292 291 291 292 291 291 291 290 289 289 289 288 287 286 286 284 283 282 280 279 278 278 277 276 277 276 276 276 276 277 278 278 277 277 279
293 293 293 293 293 292 292 291 290 291 291 291 291 291 291 290 289 288 288 287 286 286 284 283 282 281 280 278 277 278 277 277 277 276 275 275 276 277 277 278 277 278 277
292 292 292 292 292 291 290 290 290 291 290 290 290 290 290 289 288 288 288 286 285 284 283 283 282 281 279 278 277 277 277 277 276 275 275 275 276 275 275 275 277 276 276
292 292 291 291 290 290 290 290 290 289 288 289 290 289 288 288 288 287 286 285 284 283 284 283 281 281 279 278 277 277 277 276 275 274 275 274 274 274 273 274 275 275 275
291 291 290 289 289 289 289 290 289 288 288 289 288 288 287 288 288 287 286 285 285 284 284 283 281 281 280 278 278 278 277 276 275 274 273 274 273 273 273 273 273 273 273
291 290 289 289 289 289 289 289 288 288 288 288 288 287 287 287 288 286 285 285 285 284 283 283 282 282 281 280 278 279 277 276 275 273 273 273 273 272 272 272 272 272 272
290 289 289 289 289 289 288 287 287 287 287 287 287 286 285 287 288 285 285 285 285 284 283 283 283 282 281 280 279 279 278 276 275 274 273 273 273 272 271 271 271 271 270
Wind_Speed
5 13 17 20 20 22 22 18 14 14 18 21 15 10 6 3 2 5 6 7 7 7 7 8 9 10 11 11 12 14 16 18 19 9 22 15 1 6 12 9 13 14 19
6 15 23 28 27 23 18 18 21 20 18 12 6 1 2 4 4 5 7 7 8 9 10 11 13 13 12 11 12 15 17 12 14 8 7 3 5 4 19 9 17 18 25
7 8 16 23 25 24 23 21 19 16 10 9 8 5 3 2 1 3 6 8 8 9 11 14 17 15 10 7 9 13 16 9 8 7 5 3 2 7 9 19 14 29 21
5 9 14 17 20 19 17 15 13 11 9 6 5 3 2 0 1 3 7 10 14 16 19 23 16 12 5 7 10 9 10 8 8 6 7 6 4 2 4 7 20 18 26
4 7 12 11 11 11 11 9 8 7 4 3 3 3 0 1 4 6 7 18 24 23 20 20 18 10 4 5 4 5 7 8 6 5 6 6 9 6 5 7 10 19 17
2 12 12 12 7 8 8 7 6 8 7 7 9 9 7 4 1 5 11 18 22 23 24 17 7 1 6 8 9 10 9 6 6 6 6 6 3 6 3 3 9 14 18
3 3 5 17 12 14 12 12 14 19 19 19 18 15 13 10 11 15 16 23 27 23 26 11 2 4 8 10 11 10 6 5 5 6 7 7 9 10 9 7 8 6 20
5 5 9 19 18 18 17 17 18 18 16 15 14 12 10 12 15 18 22 26 26 24 20 9 6 6 9 9 7 7 7 7 9 10 11 11 12 11 10 7 9 7 9
7 7 12 17 17 17 17 16 15 14 14 14 15 16 16 16 18 21 23 26 24 22 12 10 3 15 5 8 11 12 10 10 12 13 13 15 13 11 12 13 14 10 9
7 6 11 15 17 18 18 15 15 14 13 14 15 16 17 19 20 22 25 26 21 10 8 4 7 4 6 12 14 11 11 14 14 13 13 12 12 14 17 19 20 20 19
7 6 11 14 17 17 16 15 10 9 10 11 13 15 15 17 21 24 24 22 16 9 10 8 11 10 13 11 11 12 14 15 14 12 12 13 15 20 20 21 22 24 22
6 8 12 14 14 14 12 11 6 5 6 9 10 11 13 16 20 22 21 18 11 12 12 13 12 17 14 11 12 13 15 14 13 13 12 17 22 22 21 21 23 24 25
6 6 9 12 12 11 8 5 3 1 5 6 7 9 13 17 19 21 20 18 15 11 12 16 15 10 12 12 12 14 15 13 12 13 18 20 21 22 22 23 24 24 21
6 5 7 11 10 9 8 9 5 4 6 7 8 10 14 17 20 22 20 19 19 20 18 15 13 12 12 13 13 12 10 12 15 19 20 21 22 21 23 22 21 20 24
6 6 6 12 13 13 13 10 8 9 9 9 10 11 15 19 22 22 21 19 18 16 17 19 10 9 12 11 8 8 12 16 19 21 22 22 20 21 22 22 22 23 20
7 7 10 16 17 18 15 12 12 11 12 13 13 14 17 19 23 24 21 18 14 13 10 9 10 9 4 4 7 11 15 19 20 22 19 21 20 19 20 23 22 22 22
7 7 10 18 21 17 15 14 12 14 15 15 16 17 17 20 24 22 19 16 14 17 13 16 9 1 5 8 10 14 16 17 17 18 22 21 17 19 21 22 22 23 19
7 8 13 15 16 13 13 12 14 16 16 16 18 19 18 22 25 22 19 18 17 16 13 10 2 3 6 10 14 16 16 17 19 18 17 19 18 19 19 24 18 19 19
14 13 11 10 9 8 8 11 15 15 14 18 21 19 17 22 24 21 19 18 16 12 7 5 2 4 6 10 12 12 15 16 17 16 18 16 17 18 21 23 20 18 18
7 6 5 5 3 3 6 7 11 15 19 20 22 19 17 22 20 18 17 12 7 6 8 6 1 3 6 9 11 10 12 15 17 20 17 15 16 19 20 21 18 18 14
10 10 8 4 0 1 4 11 14 16 17 19 21 19 19 21 17 16 14 13 10 8 7 4 2 4 6 8 9 9 11 15 16 18 19 18 17 20 19 18 19 17 17
13 8 5 2 2 5 9 11 13 15 19 21 22 22 24 20 15 15 13 9 7 9 7 4 4 4 4 6 8 8 9 12 14 17 16 17 17 18 16 16 17 16 15
11 6 2 2 5 8 10 11 14 19 21 21 18 23 19 11 12 14 11 7 7 7 6 7 7 7 5 5 7 9 10 15 13 14 13 14 15 15 14 15 14 14 16
6 3 1 5 9 10 11 11 18 19 20 16 16 19 12 9 10 11 8 7 6 8 11 11 10 9 8 6 7 8 11 14 14 15 14 13 14 14 14 16 16 16 16
5 2 4 6 11 12 13 16 18 17 16 15 16 19 15 11 10 8 7 5 5 9 13 12 10 11 10 7 7 8 10 12 14 15 12 14 17 19 18 19 18 19 18
5 3 5 8 12 14 17 18 13 11 13 16 15 19 17 16 11 11 10 7 7 8 9 11 12 11 11 8 7 7 8 10 12 13 12 13 14 16 17 17 19 19 20
Wind_Direction
62 90 92 96 106 112 115 116 119 126 124 124 123 107 84 70 62 42 39 31 28 22 18 18 12 8 5 12 10 6 9 4 358 341 337 329 263 349 17 351 354 351 346
60 71 93 98 99 102 107 115 111 125 134 123 109 351 266 158 109 66 39 38 30 25 18 9 4 357 352 353 3 10 8 4 5 354 315 330 301 263 329 321 339 339 338
107 90 95 104 106 108 113 111 112 114 109 89 80 88 115 156 127 22 32 34 20 9 2 0 350 337 325 336 357 1 1 2 358 26 19 338 291 339 307 313 319 334 332
92 108 101 96 102 103 103 104 104 99 89 81 53 20 310 290 34 76 59 32 11 355 339 327 325 322 317 355 4 18 16 13 21 347 342 333 312 286 303 297 315 313 314
170 123 94 86 87 97 101 97 86 83 68 37 9 355 40 97 127 97 24 350 343 341 326 314 312 295 299 343 7 29 8 351 343 347 342 333 328 306 333 309 329 317 317
159 96 103 94 76 93 98 94 81 44 38 30 23 21 27 46 12 305 312 343 339 329 322 303 275 236 5 7 7 1 0 7 13 5 4 354 328 306 301 287 307 306 319
110 77 100 104 102 88 84 79 75 66 61 56 53 48 33 11 343 325 322 328 326 320 313 286 178 47 32 6 349 349 340 327 357 350 334 324 318 316 315 304 298 298 307
127 130 127 104 95 87 82 82 80 74 59 52 45 32 10 344 334 328 322 318 314 306 295 223 198 190 320 344 327 305 302 309 327 311 305 304 305 297 297 302 323 308 288
143 143 120 104 99 94 90 91 85 70 59 49 39 30 17 3 348 335 325 319 315 302 255 201 199 317 12 327 318 282 292 296 297 297 296 288 292 284 300 307 312 294 305
148 140 117 107 103 100 104 106 92 75 56 36 26 17 3 354 348 342 336 324 312 273 227 228 320 343 305 302 277 278 295 288 293 298 290 284 293 299 309 305 305 300 288
150 134 105 103 108 115 116 103 84 64 44 30 18 9 2 356 350 345 341 331 302 254 214 227 254 272 287 285 279 294 295 296 291 284 285 295 310 312 307 303 305 306 297
146 128 124 126 121 121 115 104 109 70 41 17 7 359 353 352 349 344 341 336 279 244 255 264 291 296 285 275 284 293 294 288 284 290 297 309 316 310 305 304 308 308 301
135 130 141 145 142 126 128 149 167 47 360 341 340 347 349 346 343 341 338 329 303 266 277 292 291 285 275 278 288 294 286 284 297 305 310 311 311 305 305 310 310 306 297
171 167 162 159 150 167 188 216 232 284 296 305 321 338 342 339 341 340 329 315 297 296 301 299 299 283 281 280 285 289 300 308 306 308 308 307 308 305 307 307 303 302 302
192 186 173 174 190 204 215 229 255 271 284 291 308 327 336 337 337 331 326 315 310 298 301 308 298 296 296 293 314 320 317 313 310 312 311 309 307 301 302 302 305 302 290
203 184 186 197 207 217 225 243 261 277 285 288 305 323 329 330 332 328 326 316 317 322 320 333 319 311 312 326 318 316 313 315 317 314 315 316 312 309 306 303 302 298 295
194 184 199 210 217 225 238 252 276 291 287 290 303 310 315 324 325 323 322 320 312 322 303 334 327 297 348 337 330 325 324 322 321 322 320 320 313 315 319 315 306 306 304
200 206 220 229 228 247 249 270 282 291 288 290 298 306 309 318 320 318 315 312 304 303 287 288 241 343 342 339 334 335 331 327 327 327 326 320 323 321 316 310 322 317 310
212 220 241 239 247 259 263 281 293 300 296 297 304 304 305 316 320 316 315 313 297 290 259 208 241 327 349 344 343 337 328 329 332 331 331 328 322 325 323 323 321 319 310
207 212 188 197 201 245 292 305 312 309 300 301 310 303 304 314 312 310 307 309 292 251 196 187 229 333 349 347 346 345 331 332 332 334 332 332 330 329 330 330 337 320 325
147 143 142 143 289 213 305 309 314 314 322 320 313 303 302 309 305 305 303 291 275 209 195 200 250 325 340 349 351 346 335 335 329 330 332 334 333 333 330 330 333 333 331
135 135 119 80 177 281 307 314 316 320 318 313 309 309 309 302 299 300 299 284 226 196 196 235 268 291 318 339 343 338 337 334 329 334 333 336 333 334 335 331 331 340 338
134 128 108 294 296 305 311 308 315 320 320 317 317 320 314 288 299 299 287 246 206 204 238 253 261 265 281 313 331 338 337 339 332 337 334 335 339 342 346 346 344 352 355
137 150 272 306 313 316 308 298 319 319 319 312 322 330 314 290 297 298 268 231 214 250 258 254 254 260 266 288 321 339 330 335 335 334 333 338 347 357 0 1 1 1 359
177 232 303 310 308 312 311 312 317 316 317 306 316 325 312 278 284 267 218 225 283 286 275 268 265 262 264 283 316 322 320 334 334 335 335 344 355 0 4 4 5 4 4
203 265 296 301 307 315 315 319 320 319 325 319 310 317 310 296 254 243 237 250 293 292 279 272 268 268 262 272 301 299 304 328 334 343 336 340 347 353 355 354 357 4 2